This demonstration page uses our WeatherBlox Daily Observations layout. Learn more.

Left ArrowRight Arrow

39.01783, -85.05884

Hourly Observations for October 14, 2018

Temp ( °F °C ) Dew Point ( °F °C ) Humidity (%) Winds ( mph kmh ) Pressure ( in mb ) Visibility ( mi km ) Precip ( " mm )
12:52 am 00:52 Cloudy 46 7.8 40 4.4 79 79 SE 6 9 30.09 1019 10 16 N/A
1:52 am 01:52 Cloudy with Light Rain 46 7.8 40 4.4 79 79 E 5 7 30.08 1019 10 16 N/A
2:52 am 02:52 Cloudy 46 7.8 41 5 83 83 ESE 7 11 30.08 1019 10 16 N/A
3:52 am 03:52 Cloudy 46 7.8 42 5.6 86 86 SE 9 15 30.06 1018 10 16 N/A
4:52 am 04:52 Cloudy with Light Rain 46 7.8 43 6.1 89 89 SSE 8 13 30.08 1019 10 16 0.01 0.25
5:52 am 05:52 Cloudy with Light Rain 46 7.8 43 6.1 89 89 SSE 6 9 30.09 1019 10 16 N/A
6:52 am 06:52 Cloudy 46 7.8 44 6.7 93 93 SE 8 13 30.09 1019 10 16 0.01 0.25
7:52 am 07:52 Cloudy with Light Rain 46 7.8 44 6.7 93 93 ESE 7 11 30.09 1019 10 16 0.04 1.02
8:52 am 08:52 Cloudy with Light Rain 46 7.8 46 7.8 100 100 SE 7 11 30.10 1019 9 14 N/A
9:52 am 09:52 Cloudy with Light Rain 47 8.3 46 7.8 97 97 SE 8 13 30.11 1020 10 16 0.01 0.25
10:52 am 10:52 Cloudy 49 9.4 47 8.3 93 93 ESE 7 11 30.09 1019 10 16 N/A
11:52 am 11:52 Cloudy 50 10 48 8.9 93 93 SE 10 17 30.09 1019 10 16 N/A
12:52 pm 12:52 Cloudy with Light Rain 51 10.6 50 10 96 96 ESE 8 13 30.07 1018 2 3 N/A
1:44 pm 13:44 Cloudy with Light Rain 51 10.6 51 10.6 100 100 ESE 10 17 30.06 1018 2 2 0.01 0.25
1:52 pm 13:52 Cloudy with Light Rain 51 10.6 51 10.6 100 100 SE 12 19 30.05 1018 2 2 0.02 0.51
2:41 pm 14:41 Cloudy with Mist and Fog 52 11.1 52 11.1 100 100 ESE 10 17 30.03 1017 2 3 0.01 0.25
2:52 pm 14:52 Cloudy with Light Rain 52 11.1 52 11.1 100 100 E 9 15 30.01 1016 2 2 0.01 0.25
3:33 pm 15:33 Cloudy with Mist and Fog 52 11.1 52 11.1 100 100 ESE 10 17 30.00 1016 3 5 0.01 0.25
3:52 pm 15:52 Cloudy 52 11.1 52 11.1 100 100 ESE 7 11 30.00 1016 7 11 0.01 0.25
4:07 pm 16:07 Cloudy with Mist and Fog 52 11.1 52 11.1 100 100 ESE 9 15 30.00 1016 3 4 N/A
4:14 pm 16:14 Cloudy with Mist and Fog 52 11.1 52 11.1 100 100 ESE 12 19 30.00 1016 2 2 N/A
4:52 pm 16:52 Cloudy with Mist and Fog 53 11.7 53 11.7 100 100 ESE 8 13 29.98 1015 2 2 N/A
5:52 pm 17:52 Cloudy with Mist and Fog 53 11.7 53 11.7 100 100 E 5 7 29.98 1015 2 2 N/A
6:52 pm 18:52 Cloudy with Mist and Fog 53 11.7 53 11.7 100 100 E 6 9 29.98 1015 2 2 N/A
7:52 pm 19:52 Cloudy with Mist and Fog 53 11.7 53 11.7 100 100 E 5 7 29.99 1016 2 2 N/A
8:52 pm 20:52 Cloudy with Mist and Fog 54 12.2 54 12.2 100 100 ESE 5 7 29.98 1015 1 2 N/A
9:52 pm 21:52 Cloudy with Mist and Fog 54 12.2 54 12.2 100 100 SE 5 7 29.98 1015 1 2 N/A
10:52 pm 22:52 Cloudy with Drizzle 55 12.8 55 12.8 100 100 SE 5 7 29.98 1015 1 2 N/A
11:52 pm 23:52 Cloudy with Drizzle 56 13.3 56 13.3 100 100 N N/A 29.97 1015 1 2 0.01 0.25

Powered by AerisWeather